Find Starlink 35918

NORAD ID: 66643 Int'l Des: 2025-271 Owner: SPXS Country: US Constellation: starlink operational
LEOCIRCULAR

当前视图

正在加载3D地球...

关于 Starlink 35918

正在加载描述...

即将过境

Passes for default location (London). Set your location on the main map for personalized predictions.

高度历史

Loading altitude history...

两行轨道根数

1 66643U 25271AC 26149.36701082 .00020964 00000-0 62962-3 0 9990
2 66643 53.1588 123.4291 0001342 94.1051 266.0105 15.34410972 29949
Epoch: May 29, 2026 • Age: 22 hours

当前状态

高度 466.3 km
速度 7.64 km/s
星下点 44.79°N, 104.58°W
发射日期 Nov 23, 2025
运行时间 0.5 years
类型 internet

技术详情

分类 Payload
质量 575.00 kg
干质量 530.00 kg
总质量 575.00 kg
长度 0.30 m
直径 4.10 m
跨度 29.00 m
形状 Box + pan
制造商 SPXS
平台类型 Starlink V2MO
阶段状态 In Orbit
所有者/国家 SPXS/US

Most Searched